Weather History for KDXR - February, 2013

Change the Weather History Date:

Tuesday, February 26, 2013

  Actual Average Record
Temperature  
Mean Temperature 32 °F -  
Max Temperature 41 °F 39 °F 64 °F (1976)
Min Temperature 24 °F 23 °F 0 °F (1950)
Degree Days  
Heating Degree Days 32    
Moisture  
Dew Point 26 °F    
Average Humidity 77    
Maximum Humidity 96    
Minimum Humidity 51    
Precipitation  
Precipitation 0.12 in - - ()
Sea Level Pressure  
Sea Level Pressure 30.20 in    
Wind  
Wind Speed 4 mph (East)    
Max Wind Speed 14 mph    
Max Gust Speed 21 mph    
Visibility 9 miles    
Events Rain    
Averages and records for this station are not official NWS values.
T = Trace of Precipitation, MM = Missing Value Source: NWS Daily Summary

Daily Weather History Graph

Daily Weather History Graph

Search for Another Location

Airport or City:

Trip Planner

Search our weather history database for the weather conditions in past years. The results will help you decide how hot, cold, wet, or windy it might be!

Date:

Astronomy

Feb. 26, 2013 Rise Set
Actual Time 6:32 AM EST 5:41 PM EST
Civil Twilight 6:04 AM EST 6:09 PM EST
Nautical Twilight 5:32 AM EST 6:41 PM EST
Astronomical Twilight 5:00 AM EST 7:13 PM EST
Moon 6:56 PM EST (2/26) 6:32 AM EST (2/26)
Length of Visible Light 12h 04m
Length of Day
11h 08m
Full, 99% of the Moon is Illuminated
Feb 26
Full
Mar 4
Last Quarter
Mar 11
New
Mar 19
First Quarter
Mar 27
Full

Hourly Weather History & Observations

Time (EST) Temp. Windchill Dew Point Humidity Pressure Visibility Wind Dir Wind Speed Gust Speed Precip Events Conditions
12:53 AM 28.0 °F - 25.0 °F 88% 30.23 in 10.0 mi Calm Calm - N/A   Clear
1:53 AM 26.1 °F - 24.1 °F 92% 30.27 in 10.0 mi Calm Calm - N/A   Clear
2:53 AM 26.1 °F - 24.1 °F 92% 30.27 in 8.0 mi Calm Calm - N/A   Clear
3:53 AM 25.0 °F - 24.1 °F 96% 30.27 in 8.0 mi Calm Calm - N/A   Clear
4:53 AM 24.1 °F - 23.0 °F 96% 30.28 in 7.0 mi Calm Calm - N/A   Clear
5:53 AM 24.1 °F - 21.9 °F 91% 30.28 in 7.0 mi Calm Calm - N/A   Clear
6:53 AM 26.1 °F - 24.1 °F 92% 30.29 in 6.0 mi Calm Calm - N/A   Overcast
7:53 AM 30.0 °F - 26.1 °F 85% 30.30 in 8.0 mi Calm Calm - N/A   Overcast
8:53 AM 32.0 °F - 26.1 °F 79% 30.30 in 8.0 mi Calm Calm - N/A   Overcast
9:53 AM 36.0 °F - 27.0 °F 70% 30.32 in 8.0 mi Calm Calm - N/A   Overcast
10:53 AM 39.0 °F 34.8 °F 27.0 °F 62% 30.30 in 10.0 mi East 5.8 mph - N/A   Overcast
11:53 AM 41.0 °F 36.4 °F 24.1 °F 51% 30.30 in 10.0 mi SSE 6.9 mph - N/A   Overcast
12:53 PM 39.9 °F 36.7 °F 24.1 °F 53% 30.27 in 10.0 mi Variable 4.6 mph - N/A   Overcast
1:53 PM 39.9 °F 33.9 °F 24.1 °F 53% 30.24 in 10.0 mi East 9.2 mph - N/A   Overcast
2:53 PM 39.9 °F 33.4 °F 24.1 °F 53% 30.25 in 10.0 mi ESE 10.4 mph 16.1 mph N/A   Overcast
3:53 PM 37.9 °F 29.6 °F 24.1 °F 57% 30.22 in 10.0 mi East 13.8 mph 17.3 mph N/A   Overcast
4:53 PM 37.0 °F 30.4 °F 28.0 °F 70% 30.21 in 10.0 mi ESE 9.2 mph - N/A   Overcast
5:53 PM 37.0 °F 29.3 °F 28.0 °F 70% 30.18 in 10.0 mi East 11.5 mph 17.3 mph N/A   Overcast
6:53 PM 36.0 °F 29.0 °F 27.0 °F 70% 30.18 in 10.0 mi East 9.2 mph - N/A   Mostly Cloudy
7:53 PM 35.1 °F 26.9 °F 21.9 °F 59% 30.17 in 10.0 mi East 11.5 mph - N/A   Mostly Cloudy
8:53 PM 34.0 °F 26.6 °F 27.0 °F 75% 30.13 in 10.0 mi East 9.2 mph - 0.01 in Rain Light Rain
9:53 PM 34.0 °F 25.0 °F 28.0 °F 79% 30.08 in 10.0 mi East 12.7 mph - 0.01 in Rain Light Rain
10:19 PM 33.8 °F 25.3 °F 30.2 °F 87% 30.05 in 10.0 mi East 11.5 mph 20.7 mph 0.00 in Rain Light Rain
10:53 PM 33.1 °F 23.9 °F 30.0 °F 89% 30.06 in 7.0 mi East 12.7 mph - 0.03 in Rain Light Rain
11:23 PM 33.8 °F 24.8 °F 30.2 °F 87% 30.02 in 5.0 mi ENE 12.7 mph - 0.04 in Rain Light Freezing Rain
11:33 PM 33.8 °F 24.8 °F 30.2 °F 87% 30.00 in 6.0 mi ENE 12.7 mph - 0.04 in Rain Light Freezing Rain
11:53 PM 33.1 °F 23.9 °F 30.9 °F 92% 29.99 in 5.0 mi ENE 12.7 mph - 0.07 in Rain Light Freezing Rain